Location: Barcelona
(41.3830°N, 2.1830°E)
Time: 19:23:47
(UTC+02:00)

ISS - Pass Details

Date: 19 September 2020
Orbit: 419 x 421 km, 51.6° (Epoch: 30 September)

Event Time Altitude Azimuth Distance (km) Brightness Sun altitude
Rises 22:24:07 0° 274° (W) 2,362 1.0 -27.9°
Reaches altitude 10° 22:26:34 10° 291° (WNW) 1,500 0.0 -28.3°
Enters shadow 22:28:09 18° 317° (NW) 1,108 -0.9 -28.6°
